This demonstration page uses our WeatherBlox Daily Observations layout. Learn more.

Left ArrowRight Arrow

Hourly Observations for November 12, 2022

Temp ( °F °C ) Dew Point ( °F °C ) Humidity (%) Winds ( mph kmh ) Pressure ( in mb ) Visibility ( mi km ) Precip ( " mm )
12:56 am 00:56 Clear 12 -11.1 6 -14.4 76 76 NW 7 11 30.33 1027 10 16 0.00 0.00
1:56 am 01:56 Clear 11 -11.7 6 -14.4 80 80 NW 9 15 30.33 1027 10 16 0.00 0.00
2:56 am 02:56 Clear 10 -12.2 5 -15 80 80 NNW 9 15 30.33 1027 10 16 0.00 0.00
3:56 am 03:56 Clear 9 -12.8 6 -14.4 88 88 NW 9 15 30.33 1027 10 16 0.00 0.00
4:56 am 04:56 Clear 9 -12.8 5 -15 83 83 NNW 9 15 30.34 1027 10 16 0.00 0.00
5:56 am 05:56 Clear 8 -13.3 4 -15.6 83 83 NNW 7 11 30.35 1028 10 16 0.00 0.00
6:56 am 06:56 Clear 7 -13.9 4 -15.6 87 87 N 10 17 30.37 1028 10 16 0.00 0.00
7:56 am 07:56 Sunny 8 -13.3 4 -15.6 83 83 NNW 9 15 30.39 1029 10 16 0.00 0.00
8:56 am 08:56 Sunny 12 -11.1 7 -13.9 80 80 N 10 17 30.39 1029 10 16 0.00 0.00
9:56 am 09:56 Sunny 16 -8.9 10 -12.2 77 77 N 9 15 30.39 1029 10 16 0.00 0.00
10:56 am 10:56 Sunny 21 -6.1 13 -10.6 70 70 VRB 6 9 30.39 1029 10 16 0.00 0.00
11:56 am 11:56 Sunny 25 -3.9 12 -11.1 57 57 N 6 9 30.38 1029 10 16 0.00 0.00
12:56 pm 12:56 Sunny 29 -1.7 12 -11.1 49 49 NNE 3 6 30.35 1028 10 16 0.00 0.00
1:56 pm 13:56 Sunny 31 -0.6 11 -11.7 43 43 Calm 30.33 1027 10 16 0.00 0.00
2:56 pm 14:56 Sunny 32 0 10 -12.2 39 39 VRB 6 9 30.32 1027 10 16 0.00 0.00
3:56 pm 15:56 Sunny 32 0 10 -12.2 39 39 NNE 6 9 30.31 1027 10 16 0.00 0.00
4:56 pm 16:56 Sunny 30 -1.1 13 -10.6 48 48 ESE 7 11 30.32 1027 10 16 0.00 0.00
5:56 pm 17:56 Clear 25 -3.9 12 -11.1 57 57 ESE 8 13 30.33 1027 10 16 0.00 0.00
6:56 pm 18:56 Clear 23 -5 12 -11.1 62 62 ESE 8 13 30.33 1027 10 16 0.00 0.00
7:56 pm 19:56 Clear 19 -7.2 11 -11.7 70 70 SE 6 9 30.35 1028 10 16 0.00 0.00
8:56 pm 20:56 Clear 19 -7.2 11 -11.7 70 70 SE 8 13 30.34 1027 10 16 0.00 0.00
9:56 pm 21:56 Clear 18 -7.8 11 -11.7 73 73 SE 8 13 30.33 1027 10 16 0.00 0.00
10:56 pm 22:56 Clear 17 -8.3 11 -11.7 76 76 ESE 6 9 30.32 1027 10 16 0.00 0.00
11:56 pm 23:56 Clear 16 -8.9 10 -12.2 77 77 SSE 6 9 30.31 1026 10 16 0.00 0.00

Powered by AerisWeather